Regional Weather Roundup
Issued by NWS Tiyan, Guam

Home | Current Version | Previous Version | Text Only | Print | Product List | Glossary On
Versions: 1 2 3 4 5 6 7 8 9 10 11 12 13 14 15 16 17 18 19 20 21 22 23 24 25 26 27 28 29 30 31 32 33 34 35 36 37 38 39 40 41 42 43 44 45 46 47 48 49 50
000
ASGM40 PGUM 020812
RWRGUM
WEATHER ROUNDUP FOR THE MARIANAS
NATIONAL WEATHER SERVICE TIYAN GU
600 PM CHST SAT AUG 02 2014

GUZ001>004-020900-
MARIANA ISLANDS-

CITY           SKY/WX    TMP DP  RH WIND       PRES   REMARKS
GUAM AIRPORT   TSTM      81  77  89 CALM      29.81R
ANDERSEN AFB   MOSUNNY   81  75  83 SW3       29.81R
ROTA AIRPORT   PTSUNNY   81  77  89 VRB3      29.81R
TINIAN AP      PTSUNNY   82  75  78 SW3       29.78R
SAIPAN AP      LGT RAIN  81  75  83 W5        29.80R

$$



USA.gov is the U.S. government's official web portal to all federal, state and local government web resources and services.